Location: Buckeye Ditch
(40.9104°N, 122.9517°W)
Time: 08:11:49
(UTC+00:00)

H-2A R/B - Visible Passes

Search period start: 18 July 2024 00:00
Search period end: 28 July 2024 00:00
Orbit: 731 x 833 km, 98.2° (Epoch: 17 July)

Date Brightness Start Highest point End Pass type
(mag) Time Alt. Az. Time Alt. Az. Time Alt. Az.
19 Jul 3.1 11:59:41 10° NNE 12:04:21 42° E 12:08:59 10° S visible
20 Jul 4.2 11:28:36 10° NE 11:32:18 21° E 11:35:58 10° SE visible
22 Jul 2.9 12:03:27 10° NNE 12:08:11 47° E 12:12:53 10° S visible
23 Jul 4.1 11:32:16 10° NE 11:36:09 23° E 11:40:00 10° SSE visible
24 Jul 4.8 11:02:41 10° ENE 11:03:57 11° E 11:05:13 10° ESE visible
25 Jul 2.7 12:07:12 10° NNE 12:12:00 52° E 12:16:46 10° S visible
26 Jul 3.9 11:35:56 10° NE 11:39:58 25° E 11:44:01 10° SSE visible
27 Jul 4.6 11:05:50 10° ENE 11:07:48 12° E 11:09:46 10° ESE visible
